Theta_e
330 329 327 325 325 324 323 323 322 321 321 320 320 320 320 321 321 321 320 320 321 321 321 320 319 319 319 319 319 318 317 316 316 316 316 316 316 316 316 316 316 315 314 313 312 312 312 313 313 313 313 313 313 313 313 314 315 317 317 317 318 318 317 317 316 316 316 315 314 314 314 316 318 320 321 323 323 324 324 325 327 327 328 328 327
329 328 326 324 323 322 322 322 321 320 320 320 320 320 321 321 320 320 320 320 320 320 319 319 319 319 318 318 318 317 317 317 316 316 317 317 317 316 316 316 315 315 314 312 311 312 312 312 312 312 313 313 312 312 312 312 313 314 315 316 317 317 317 316 315 315 315 314 313 313 312 313 315 316 318 320 321 322 323 323 324 325 325 325 325
327 325 324 323 322 321 320 320 320 320 319 319 320 320 320 320 320 319 319 319 319 319 318 318 318 318 318 317 317 317 317 317 316 316 316 316 316 316 316 315 315 315 314 312 311 311 311 311 311 312 312 312 312 311 311 311 311 311 313 314 315 315 315 315 315 313 313 313 313 312 311 310 311 312 314 316 318 320 321 322 322 322 323 322 323
324 323 323 322 321 320 320 320 320 319 319 319 319 320 320 319 319 319 319 319 319 318 318 317 317 318 317 316 316 317 317 316 316 316 315 315 315 315 315 314 314 314 313 312 310 309 308 309 309 309 310 310 309 308 308 309 309 309 309 311 312 313 313 313 314 312 310 310 311 310 309 308 308 309 311 313 316 317 318 319 319 320 321 321 322
322 322 321 320 320 320 320 319 319 319 319 319 319 319 319 318 318 318 318 318 318 318 317 316 317 317 315 314 314 315 316 316 316 315 314 314 314 314 314 314 313 313 312 312 310 308 305 306 306 305 306 307 305 304 304 305 305 304 305 307 309 311 311 311 311 311 308 307 308 307 306 306 306 307 308 310 312 314 315 316 316 317 319 321 322
321 320 319 319 319 319 319 318 318 318 318 318 318 318 317 317 318 318 317 317 317 317 316 315 315 315 314 314 313 313 314 315 314 313 313 313 312 313 313 313 312 311 311 311 311 307 302 301 303 302 303 304 304 303 303 302 302 301 301 302 304 307 308 308 308 308 307 306 305 305 305 305 305 304 305 307 309 311 313 313 314 315 317 319 320
320 319 319 319 319 319 317 317 318 318 318 318 318 317 317 317 317 317 316 317 316 315 314 314 314 314 313 313 313 312 312 312 312 312 311 311 310 311 312 312 311 309 308 307 309 307 302 299 301 301 302 304 305 304 304 303 303 302 301 300 300 302 305 306 306 306 306 305 305 305 304 304 304 303 304 306 307 308 309 311 312 314 316 316 317
319 318 318 318 318 317 316 317 317 317 317 317 317 317 317 317 317 316 316 316 315 314 313 313 313 313 312 311 310 309 308 308 309 309 308 308 307 307 308 309 308 308 307 305 305 306 304 301 300 301 303 305 306 306 305 305 305 304 302 300 300 300 303 305 305 305 305 305 304 304 304 303 302 301 302 304 306 307 307 307 308 311 313 313 313
318 318 317 317 317 317 317 317 317 317 316 316 316 316 316 316 316 316 315 315 314 313 313 313 312 311 309 307 305 304 302 303 304 305 304 303 303 302 303 304 305 305 305 302 300 301 303 303 302 302 304 306 307 306 306 305 305 305 304 302 302 301 302 304 305 304 304 304 304 303 303 303 302 301 302 303 304 305 305 305 307 309 310 311 311
318 317 317 317 316 316 317 317 316 316 316 316 316 316 316 315 315 315 315 314 314 313 312 311 310 307 305 303 301 299 299 299 301 301 300 299 298 298 299 300 301 301 300 298 297 297 298 300 301 304 306 306 307 307 306 305 305 305 305 303 302 302 302 303 304 304 304 304 303 303 303 303 302 302 302 303 303 303 304 304 305 307 308 309 310
319 317 317 317 317 317 317 316 316 316 316 316 316 316 315 315 315 314 314 313 312 311 310 308 305 303 301 300 298 297 297 298 298 298 297 297 297 297 297 297 297 298 297 296 296 296 296 296 298 303 305 306 307 307 306 306 305 305 305 304 302 302 303 303 303 303 303 303 303 303 303 303 302 301 301 302 303 303 303 303 304 306 307 307 308
319 317 316 317 317 316 316 316 316 316 316 316 315 315 315 314 314 313 313 312 311 309 306 304 301 300 299 298 297 297 296 297 297 296 296 296 296 295 296 296 296 296 296 296 296 296 296 296 297 299 303 305 306 306 306 306 305 305 305 304 303 302 303 303 303 303 303 303 303 303 303 303 302 302 302 302 302 302 302 302 303 304 305 306 306
319 317 317 317 317 316 316 316 316 316 316 315 315 315 314 313 313 312 312 310 308 305 302 300 299 298 297 297 297 296 296 296 296 296 296 296 297 296 295 295 296 296 296 296 296 296 296 296 296 297 300 303 305 306 306 306 306 305 304 304 304 303 303 303 303 303 303 303 303 303 303 303 302 302 302 302 302 302 302 302 302 303 303 304 304
318 317 317 317 317 316 316 316 316 316 315 315 314 314 313 313 312 311 309 307 304 301 299 298 297 297 296 296 296 296 296 296 295 295 296 297 298 296 295 295 295 295 296 296 296 296 296 296 296 296 297 299 302 304 305 306 306 305 304 303 304 304 304 303 303 303 302 302 303 303 303 303 302 302 302 301 301 301 301 301 301 302 302 302 303
317 317 317 317 317 316 316 316 315 315 315 314 314 313 312 312 311 308 306 302 300 298 298 297 296 296 296 296 296 296 295 295 296 296 298 299 298 296 295 295 295 295 295 295 295 296 295 296 296 296 296 297 299 302 303 305 305 305 304 304 303 304 304 303 303 303 303 302 303 303 303 303 303 302 302 301 301 300 300 300 300 301 301 302 302
317 317 317 317 316 316 316 315 315 315 314 314 313 312 312 311 309 306 303 300 298 297 297 296 296 296 296 296 296 295 295 295 297 299 301 302 301 298 296 295 295 295 295 295 295 295 295 295 295 296 296 296 297 299 300 303 304 304 304 304 303 303 304 303 303 303 303 302 303 303 303 303 303 302 301 301 300 300 300 301 301 301 301 301 301
317 317 317 317 316 316 316 315 314 314 313 313 312 311 311 310 307 304 301 299 297 296 296 296 296 296 296 296 295 295 295 295 297 300 303 304 304 302 300 299 297 296 295 295 295 295 295 295 295 295 295 295 296 297 298 301 303 303 303 303 303 303 303 303 303 302 302 302 302 302 302 302 302 302 301 301 300 299 300 300 300 299 299 298 298
317 317 317 316 316 316 315 314 314 313 313 312 311 311 310 307 304 301 300 298 297 296 296 296 296 295 295 296 295 295 295 296 297 300 303 304 305 304 304 303 302 299 296 294 294 295 295 295 295 295 295 295 296 297 298 299 301 302 302 303 303 303 303 302 302 302 302 302 302 302 302 302 302 302 301 300 299 299 299 298 298 297 297 297 297
316 317 316 316 316 315 314 314 313 313 312 311 310 309 307 304 301 299 298 297 296 296 295 295 295 295 295 295 295 295 295 296 297 299 301 303 304 303 303 303 302 301 299 296 294 294 295 294 294 294 294 295 295 296 298 299 300 301 301 302 302 303 302 302 302 302 302 302 302 302 302 302 302 302 301 301 300 299 299 298 298 297 297 296 296
316 316 316 315 315 314 314 313 312 312 311 310 309 307 304 300 299 298 298 298 297 296 295 295 295 295 295 295 295 295 295 295 296 298 300 302 303 303 302 302 301 300 299 297 295 294 294 294 294 294 294 295 295 296 297 299 300 301 301 301 302 302 302 302 302 302 302 302 302 302 302 301 302 302 301 301 301 300 299 298 298 297 297 297 297
316 315 315 315 314 314 313 312 311 311 310 308 306 303 300 299 300 301 301 300 298 296 295 295 295 295 295 295 295 295 295 295 295 296 298 299 300 300 300 301 301 299 297 295 294 294 294 294 294 294 294 295 295 295 296 297 298 300 300 301 301 301 302 302 301 301 302 301 301 301 302 301 301 301 301 301 301 300 299 298 297 298 298 298 298
315 315 314 314 313 313 312 311 310 309 308 306 303 301 301 303 303 303 302 300 297 295 295 295 295 295 295 295 295 295 295 295 295 295 295 296 297 297 297 298 298 297 295 295 294 294 294 294 294 295 295 295 295 296 296 296 296 298 299 300 300 301 301 301 301 301 301 301 301 301 301 301 301 301 301 301 301 301 299 298 298 298 298 298 298
314 314 314 313 313 312 311 310 309 308 306 303 301 302 304 304 303 302 300 298 295 294 295 295 294 295 295 295 295 295 295 295 295 295 295 295 295 295 295 295 295 295 294 294 294 293 294 294 294 295 295 295 296 296 297 297 297 296 297 298 299 299 300 301 301 301 301 301 300 300 301 301 301 301 301 301 300 300 300 299 298 298 298 298 298
314 313 313 312 311 310 309 309 307 306 303 301 300 302 303 302 300 299 299 298 297 296 296 295 294 294 295 295 294 294 295 295 295 295 295 295 294 294 294 294 294 294 294 294 294 294 294 295 295 295 295 296 297 297 297 297 298 297 297 297 297 298 299 299 300 300 300 300 300 300 300 301 301 301 300 300 300 300 300 299 299 298 298 298 298
313 312 312 311 310 309 308 307 305 303 301 300 300 300 300 298 298 300 301 301 300 300 300 299 297 295 294 294 295 295 294 294 294 294 294 294 294 294 294 294 294 294 294 294 295 295 295 296 296 297 297 298 298 298 297 297 298 298 298 297 296 296 297 298 299 299 299 299 299 300 300 300 300 301 300 300 300 300 300 299 299 298 298 298 298
312 311 310 310 309 308 307 305 303 301 299 299 298 297 298 299 301 302 303 303 302 302 302 302 301 298 296 294 294 294 294 294 294 294 294 294 294 294 294 294 294 294 294 295 296 296 297 297 297 298 298 299 299 299 298 297 297 297 298 298 297 297 296 296 297 298 298 298 298 299 299 300 300 300 300 300 299 299 299 299 299 299 299 298 298
311 310 309 308 307 307 305 303 300 299 299 298 298 298 300 303 304 304 304 303 303 302 302 301 301 301 300 297 296 297 298 297 295 294 294 295 295 295 295 295 296 296 296 295 296 297 297 298 298 298 298 298 298 298 298 298 297 296 297 297 297 298 297 296 296 297 297 297 297 298 298 298 299 299 300 300 299 299 299 299 299 299 299 299 299
310 309 308 307 306 305 302 300 300 301 301 300 300 301 303 304 304 304 304 303 303 302 301 301 301 301 301 300 300 302 302 299 296 295 296 296 296 296 295 295 296 297 297 296 297 297 297 297 297 296 296 297 297 297 297 298 297 296 296 296 297 297 297 296 295 296 296 296 297 297 297 297 298 299 299 299 299 299 299 299 299 298 299 299 299
309 307 306 306 304 302 300 300 300 301 301 301 302 303 303 303 303 303 303 303 302 301 301 301 300 300 300 301 301 301 299 297 296 296 296 296 295 294 294 294 294 295 296 296 296 297 296 296 295 294 294 295 296 296 296 297 297 296 296 296 295 296 296 296 295 295 295 296 296 296 296 296 297 297 298 298 299 299 299 298 298 298 298 299 299
307 306 306 305 302 300 300 300 299 299 300 300 302 303 303 302 303 303 302 302 301 301 301 300 300 300 299 299 298 296 295 295 295 294 294 294 294 293 293 293 293 294 294 295 296 296 296 295 295 294 294 293 294 295 295 295 295 296 295 295 295 295 296 296 295 294 295 295 296 296 296 296 296 296 297 297 298 298 298 298 298 298 298 298 298
306 305 305 303 300 300 301 300 299 299 300 300 301 302 303 302 302 302 302 301 301 301 301 301 300 300 299 297 296 294 294 294 293 293 293 293 293 293 293 293 293 294 295 296 296 296 296 295 295 295 294 293 293 294 294 294 294 294 295 294 294 294 294 295 295 294 294 295 295 295 296 296 295 296 296 297 296 297 297 298 298 298 298 298 298
306 306 304 301 299 300 301 300 299 299 299 300 301 302 302 302 302 301 301 301 301 302 301 301 300 299 298 296 294 294 294 293 293 293 293 293 293 293 293 293 293 294 295 296 297 297 297 296 296 295 295 294 293 293 293 293 293 293 293 293 293 292 293 294 295 294 294 294 294 295 295 295 295 295 295 296 296 296 296 296 297 297 297 297 298
307 306 303 300 299 300 300 298 298 298 298 299 300 301 302 301 301 300 300 300 301 301 301 299 297 296 296 295 294 293 293 293 293 293 293 293 293 293 292 292 293 294 296 296 297 297 297 297 296 296 295 294 294 293 293 293 292 292 292 292 292 292 292 293 293 294 294 294 294 294 295 295 295 295 295 295 295 295 295 295 295 296 296 296 297
307 305 301 299 299 299 299 298 299 299 298 298 299 300 300 299 298 298 298 299 299 298 297 295 294 294 294 294 293 293 293 293 293 293 293 293 293 292 293 293 294 295 296 296 297 297 296 296 296 296 295 295 294 294 293 293 292 292 292 292 291 291 291 292 292 293 294 294 293 294 295 295 295 295 295 294 294 295 295 295 295 295 296 296 296
305 302 300 299 299 300 299 300 299 298 297 297 297 297 296 295 295 295 296 296 295 294 294 293 293 293 293 293 293 293 293 293 293 293 293 293 293 293 294 295 296 296 296 296 296 296 296 296 296 296 296 295 294 294 294 293 293 292 292 292 292 291 291 291 291 292 293 293 293 294 295 295 295 295 295 295 294 294 294 294 294 295 295 295 296
302 300 299 300 301 301 300 300 298 297 297 297 296 295 295 294 294 294 294 294 294 293 293 293 293 293 293 293 293 293 293 293 293 293 293 293 293 294 296 297 297 297 297 296 296 296 296 296 296 296 295 295 295 294 294 293 293 292 292 292 292 292 292 292 291 291 292 293 293 293 294 295 295 295 295 295 295 294 294 294 294 294 294 294 295
300 299 299 301 302 301 300 300 299 299 299 298 298 297 295 293 293 293 293 293 293 293 293 293 293 293 293 293 293 293 293 293 293 293 293 293 295 297 298 298 297 297 297 297 296 296 296 296 296 296 295 295 294 294 293 293 293 292 292 292 292 292 292 292 291 291 292 292 292 292 293 294 294 294 294 295 295 294 294 294 294 294 294 294 294
300 299 300 302 302 301 301 301 301 301 300 300 300 298 295 294 294 294 294 294 293 293 293 293 293 293 293 293 293 293 293 293 293 293 293 294 296 298 298 298 298 298 297 297 296 296 296 296 295 295 296 295 294 294 294 293 292 292 292 292 292 292 292 292 292 291 292 292 291 291 291 292 293 293 294 294 294 294 294 294 295 294 294 294 294
301 300 301 302 302 302 302 302 302 301 301 301 300 298 296 296 296 296 296 295 294 293 293 293 293 293 293 293 293 293 293 293 293 293 293 294 296 298 298 298 298 298 298 297 297 297 297 296 295 295 295 295 294 295 294 293 293 292 291 292 292 292 292 292 292 292 292 291 291 291 291 291 292 292 292 292 294 294 294 294 294 295 294 294 294
302 301 301 302 302 302 303 302 302 301 301 301 300 298 297 297 298 298 298 297 296 295 294 293 293 294 293 293 293 293 293 293 293 294 294 294 296 298 299 299 299 298 298 298 298 298 297 297 296 295 295 294 294 295 295 294 293 292 292 292 292 292 292 292 292 291 292 291 291 291 291 291 291 291 291 291 293 294 294 293 294 295 295 294 294
301 301 301 302 302 302 302 302 301 301 302 302 300 299 298 299 299 299 299 298 298 298 296 294 295 296 296 295 294 293 293 295 297 297 297 297 296 297 298 299 299 298 298 298 298 298 297 297 297 296 295 294 294 294 294 293 293 293 292 292 292 292 292 292 292 291 291 292 291 291 291 291 291 291 291 291 291 293 293 293 292 293 294 294 294
301 300 301 302 302 302 302 302 301 301 301 301 300 299 299 299 299 300 300 299 298 299 299 297 298 299 299 299 297 295 294 297 300 300 299 299 298 297 297 298 299 299 298 298 298 298 297 297 297 297 296 294 293 292 292 293 293 293 294 294 293 292 291 292 292 292 291 292 292 291 291 291 291 291 291 291 290 291 292 292 291 291 292 293 293
300 300 301 302 302 302 301 301 300 300 300 300 300 300 300 300 300 300 300 299 298 299 300 299 299 300 300 300 300 297 295 297 300 300 300 300 300 298 298 298 298 298 299 298 298 298 298 297 296 295 295 294 293 292 292 293 293 293 293 294 293 293 292 291 292 292 292 292 292 291 292 292 291 291 291 291 290 291 291 291 291 290 290 291 292
300 300 300 301 301 301 301 300 299 300 300 300 300 300 299 300 300 300 299 299 298 299 300 300 300 301 300 300 300 299 296 295 298 300 300 300 300 299 299 299 298 298 298 298 298 298 298 297 296 294 294 294 294 294 293 293 292 292 292 292 293 293 293 292 292 292 292 292 292 292 292 292 292 291 292 291 291 291 291 291 291 290 290 290 290
300 299 300 300 300 300 300 299 299 300 300 300 300 299 299 299 300 300 299 299 298 298 299 300 300 300 301 300 300 299 297 295 295 296 298 299 299 299 299 299 299 298 298 299 299 298 298 297 296 295 294 294 294 294 293 293 293 293 292 292 292 292 293 292 292 292 292 292 292 292 292 292 292 292 292 292 291 292 292 292 291 291 291 291 290
299 298 299 299 299 299 299 299 299 300 300 300 299 299 298 299 300 300 299 299 299 298 298 299 300 300 300 301 300 299 299 297 295 295 296 298 299 300 299 299 299 298 298 298 298 298 298 297 296 295 294 293 293 293 293 293 293 293 294 294 293 293 293 292 292 292 292 292 292 292 292 292 292 292 292 293 292 292 292 292 292 292 292 292 291
298 298 298 299 299 298 299 300 300 299 300 300 299 299 298 298 300 300 299 299 299 298 298 299 300 300 300 300 300 300 300 299 298 298 298 299 300 300 299 299 299 299 299 299 298 298 298 297 297 296 295 294 293 293 292 292 292 293 293 294 295 295 294 294 293 293 292 292 292 292 292 292 292 292 292 292 292 292 292 292 292 292 292 292 292
298 298 298 299 299 298 299 300 300 300 299 299 299 299 299 298 299 300 300 299 299 299 298 298 299 299 300 300 300 300 300 300 300 300 300 300 300 300 300 300 299 299 299 299 299 298 298 298 297 297 296 295 294 293 293 292 292 292 292 293 294 294 295 295 295 294 293 293 292 292 291 291 291 291 291 291 291 291 291 291 291 291 291 291 291
298 297 297 299 299 299 299 300 300 300 300 299 299 300 300 299 299 300 300 299 299 299 299 299 299 299 300 300 300 300 300 300 300 300 300 300 300 300 300 300 300 300 299 299 299 299 298 298 298 297 297 295 294 293 293 292 292 292 292 292 292 292 293 294 294 294 294 293 292 292 291 291 291 291 291 291 291 291 291 291 290 290 290 290 290
299 298 297 298 300 299 299 300 301 300 300 299 299 299 300 299 299 299 300 300 300 300 299 299 299 300 300 300 300 300 300 300 300 300 300 300 300 300 299 299 299 299 299 299 299 299 299 298 298 298 297 296 295 294 293 293 293 292 292 292 292 291 291 292 292 292 292 292 292 291 291 291 291 291 291 291 291 291 291 290 290 290 290 290 290
300 300 298 298 300 300 300 300 301 300 300 300 299 299 299 299 299 299 300 300 300 300 299 299 299 299 300 300 300 300 300 300 300 300 300 300 300 300 300 300 300 299 299 299 299 299 299 299 298 298 298 297 296 295 295 295 295 295 295 294 294 294 293 293 292 292 292 291 291 291 291 291 291 291 291 291 291 290 290 290 290 290 290 290 290
Wind_Speed
13 11 9 9 11 13 12 12 12 12 11 11 11 11 11 11 11 10 9 11 13 11 7 8 9 8 8 9 10 11 12 13 13 15 16 17 17 18 17 15 15 16 16 15 15 16 16 17 18 20 21 21 22 22 22 21 19 17 19 23 24 26 28 27 25 23 23 24 25 26 26 25 24 21 19 17 15 14 13 12 11 10 10 13 16
12 10 10 12 13 13 13 13 12 11 11 11 11 11 12 13 12 11 11 12 12 10 9 9 7 5 6 10 13 14 14 15 15 15 16 16 16 16 15 15 16 15 16 17 17 16 16 16 17 18 19 20 21 23 24 24 23 19 17 18 21 23 25 26 26 25 24 25 26 26 26 26 25 23 21 20 17 15 13 13 13 12 12 15 15
12 12 13 13 13 13 12 12 11 11 12 12 12 12 13 13 12 11 13 13 11 10 8 7 6 6 6 11 15 14 12 13 14 12 12 12 13 14 13 14 16 15 16 19 19 18 17 17 17 18 18 20 21 23 24 24 24 23 20 17 17 20 21 21 24 26 24 24 26 26 27 27 27 25 21 18 17 15 14 13 13 12 13 15 15
13 14 14 14 14 14 13 12 12 12 12 12 13 13 13 12 10 10 13 13 10 8 8 9 10 6 5 10 13 10 8 10 11 12 11 10 11 13 13 13 14 15 17 20 21 22 22 20 20 19 19 21 23 24 25 25 24 24 23 19 17 20 20 18 21 25 24 23 24 25 28 29 29 28 23 18 15 15 15 14 14 13 12 13 13
13 14 14 15 16 16 14 14 13 13 13 13 14 14 13 12 10 9 11 13 12 9 8 10 10 6 4 8 9 8 7 7 8 10 12 10 11 14 14 13 12 14 17 19 20 22 23 21 22 22 22 24 26 29 29 27 26 26 26 22 18 19 20 18 19 22 24 25 26 26 29 30 30 30 29 25 19 15 14 15 17 16 13 12 12
14 14 15 16 17 16 15 15 14 14 14 15 15 14 13 13 11 11 12 12 11 9 9 10 10 7 7 8 9 9 9 6 5 8 11 11 10 12 13 12 11 11 13 16 17 19 22 21 21 22 23 25 28 31 33 31 29 30 31 28 22 21 22 23 22 23 25 28 29 30 32 33 33 34 34 32 28 23 18 16 19 19 17 16 16
15 15 17 18 17 16 16 16 16 16 15 14 14 14 14 13 12 13 12 10 9 9 11 11 10 9 9 8 9 9 8 8 6 6 9 11 9 10 11 10 12 13 14 15 15 16 19 20 20 21 22 25 28 30 33 33 33 33 35 34 31 26 25 25 25 26 27 30 31 32 33 35 37 38 36 32 30 30 29 26 24 22 22 24 23
16 17 18 18 17 16 16 17 17 16 15 15 15 16 16 14 13 13 12 9 8 10 11 10 10 9 9 9 9 10 9 10 8 7 9 12 11 11 11 10 12 14 14 15 15 16 17 19 20 20 21 23 25 28 30 32 33 34 35 38 38 35 29 26 26 27 28 30 32 33 35 38 41 42 40 35 33 34 33 31 29 25 26 27 27
16 17 18 18 16 16 16 16 16 15 14 15 15 16 16 15 14 13 12 10 9 10 10 10 10 10 10 10 10 10 11 11 10 9 10 12 12 11 11 11 12 12 12 13 15 16 16 17 18 19 19 21 22 24 27 28 30 32 34 38 41 40 34 29 27 28 28 30 33 34 36 41 44 46 44 38 36 35 32 31 29 26 27 28 27
15 16 17 17 16 16 17 17 16 15 15 15 15 15 15 15 14 14 13 11 10 10 10 11 11 11 11 11 11 11 12 13 11 10 10 11 12 11 10 11 11 11 12 13 15 17 17 16 16 15 16 17 18 20 23 25 28 29 30 34 39 40 38 33 29 29 29 30 32 34 37 40 42 44 43 37 34 34 32 33 30 26 28 30 28
14 16 17 17 16 16 17 17 15 15 16 16 15 15 15 15 14 14 12 10 11 11 11 12 12 12 11 10 11 12 14 13 11 10 10 11 12 12 11 11 11 12 12 13 15 17 17 17 16 14 13 15 16 18 20 23 26 26 26 30 34 37 38 35 32 30 30 30 31 33 36 39 41 44 43 37 34 35 33 32 31 28 28 30 29
11 16 18 17 16 17 17 16 15 16 16 16 15 16 15 15 14 13 11 11 12 13 12 12 12 11 10 10 11 13 14 12 10 9 11 12 14 14 13 13 13 14 14 15 16 17 17 18 17 15 13 12 14 17 19 21 24 24 23 25 29 32 34 35 33 32 31 31 30 31 34 38 41 44 44 38 34 35 34 33 32 29 27 27 27
11 17 19 18 17 17 18 17 17 18 17 16 16 15 15 15 14 12 12 12 13 13 13 13 12 11 10 10 12 14 14 12 10 10 12 14 16 16 15 14 15 15 16 16 16 17 18 19 18 17 15 12 13 16 18 20 21 21 20 20 23 26 30 33 32 31 32 32 31 30 32 38 40 42 43 39 34 34 35 34 33 31 27 25 24
16 20 20 18 18 19 19 18 18 18 17 16 16 15 15 16 14 12 13 14 14 14 13 12 11 11 11 11 13 14 13 12 11 13 14 15 16 16 16 16 16 17 17 17 18 18 19 19 19 19 17 14 13 14 15 17 19 19 19 20 20 22 26 29 30 29 30 31 31 29 30 36 39 40 42 42 38 34 32 31 30 29 27 24 22
20 21 20 19 20 20 19 19 19 19 18 17 16 16 16 15 14 13 15 15 14 13 12 11 12 12 12 12 13 13 13 12 13 15 16 16 16 16 16 16 17 17 17 18 19 19 19 20 20 20 19 17 15 13 13 15 17 16 17 19 21 21 23 25 27 28 27 29 30 29 29 33 37 39 42 42 40 37 32 28 27 27 28 27 25
21 22 22 21 21 21 20 20 20 19 18 17 16 16 16 15 15 16 15 15 14 13 12 12 12 13 13 13 13 13 13 12 13 15 16 16 15 15 15 16 17 17 18 18 18 19 19 19 20 21 20 18 16 14 13 15 16 16 16 17 20 22 22 23 25 26 25 26 28 28 29 31 34 37 40 40 41 40 36 32 32 32 32 33 32
22 23 22 21 22 21 20 20 20 19 18 17 17 17 16 16 16 17 15 14 13 13 12 13 13 13 14 14 14 14 13 12 13 15 15 14 13 12 12 15 16 16 17 18 18 19 19 19 20 20 20 18 16 15 16 18 18 18 18 18 20 22 23 23 23 24 23 24 25 26 28 29 30 34 38 39 40 42 41 39 38 37 36 35 34
23 23 22 21 22 22 20 20 20 19 18 18 18 17 17 17 17 17 15 14 13 12 12 13 14 13 14 15 15 14 14 12 13 14 14 14 13 10 9 10 12 13 15 16 17 18 19 19 19 20 19 18 16 17 18 21 22 21 20 20 20 21 22 22 21 22 23 23 24 25 26 27 28 31 35 39 41 43 44 43 41 40 39 36 35
23 23 22 22 22 21 20 20 19 19 19 19 19 19 18 18 17 16 14 13 13 13 13 14 15 14 14 14 15 15 14 12 12 13 14 14 13 11 9 9 9 9 11 12 14 16 18 18 18 18 18 17 16 17 19 20 22 21 21 21 21 21 21 21 21 21 22 23 25 26 25 25 27 29 33 36 39 42 44 44 44 45 44 39 37
24 25 24 23 22 20 20 20 20 20 20 20 20 21 20 19 17 15 14 13 13 14 15 15 16 16 14 14 13 13 14 13 11 11 12 12 12 11 12 11 9 8 8 10 12 15 16 17 17 17 17 17 17 18 18 19 20 19 20 21 21 19 19 20 20 20 20 21 23 25 25 24 25 28 31 33 35 39 43 44 46 47 46 44 41
25 26 25 23 21 20 20 21 21 20 20 21 22 22 20 19 17 15 14 14 14 15 16 16 16 16 15 14 13 13 12 12 12 11 10 9 8 9 12 13 10 8 8 10 12 14 15 15 15 16 17 19 19 20 19 19 18 18 19 20 19 17 17 18 19 19 20 20 21 23 24 24 25 28 29 30 31 35 40 44 47 47 46 45 44
26 26 25 24 23 22 22 21 20 20 21 22 23 22 20 19 17 16 15 15 15 16 16 16 16 16 15 14 14 13 12 12 12 12 12 11 9 8 11 12 11 9 10 11 12 14 14 14 14 15 17 19 20 21 22 22 20 19 18 17 17 17 17 17 18 18 20 22 23 23 24 24 25 27 27 27 27 30 34 40 45 46 46 43 41
27 26 25 25 24 24 22 21 20 22 23 24 23 22 20 18 17 16 16 16 17 17 17 16 16 16 15 14 13 13 13 12 12 12 13 13 11 9 9 11 11 12 12 13 14 14 14 15 16 17 18 19 20 21 21 22 23 22 19 17 17 17 18 17 17 18 19 21 23 24 25 25 24 24 25 25 25 27 30 34 37 41 44 43 41
27 26 26 25 24 22 21 21 21 23 24 24 23 22 20 18 17 17 17 17 17 17 16 15 15 15 15 15 14 13 13 13 13 13 13 13 13 12 12 12 12 13 14 15 15 14 14 15 17 18 20 21 21 20 19 20 21 21 21 19 18 18 19 19 18 18 19 21 23 23 24 25 24 23 22 22 22 23 27 30 32 35 38 40 40
28 28 26 25 23 22 22 22 23 24 24 23 22 21 19 18 17 17 16 15 15 15 14 13 13 14 15 15 14 14 14 14 14 14 13 12 12 12 13 13 13 14 15 16 16 15 15 15 16 18 19 20 19 19 18 18 18 19 20 21 21 20 19 19 20 20 21 22 22 22 21 22 23 23 21 20 20 20 22 25 28 32 35 35 36
29 27 25 23 23 23 24 25 25 25 23 22 21 20 19 18 16 14 13 13 13 14 13 12 12 12 13 14 15 15 14 14 15 16 15 14 12 11 11 12 12 12 13 13 14 15 16 15 15 15 16 16 16 16 17 17 18 18 19 20 21 22 20 19 20 20 21 21 22 21 20 19 19 21 22 21 20 20 20 21 24 27 31 33 33
28 26 24 25 25 25 26 27 26 23 21 21 21 20 18 16 15 14 14 13 13 13 14 14 13 13 12 13 14 13 11 11 13 15 15 15 13 10 8 9 10 10 10 11 12 14 14 13 12 12 12 13 13 14 14 15 17 19 19 19 19 20 20 19 19 19 19 20 21 20 20 19 18 19 21 23 24 21 19 20 22 23 25 28 30
26 26 26 26 27 27 28 28 26 24 23 23 22 20 17 17 18 18 18 16 15 15 14 14 14 14 13 13 13 12 12 11 12 12 11 12 11 9 8 7 8 9 9 10 11 12 11 9 9 9 10 12 12 13 13 15 16 17 19 19 18 19 19 18 18 18 18 19 20 20 20 20 19 19 18 20 24 24 21 20 21 22 21 22 24
27 27 28 28 29 30 29 28 28 27 26 25 24 22 20 20 20 20 20 19 18 16 16 15 15 15 15 15 14 14 13 11 10 11 11 10 9 8 7 7 7 8 9 10 11 11 9 8 9 9 10 12 13 13 13 14 15 16 17 17 17 18 19 19 18 18 18 18 19 20 20 20 20 19 19 18 19 21 23 23 23 23 22 22 22
29 29 30 31 32 31 29 28 28 28 27 26 26 24 22 21 20 20 20 20 19 18 18 18 17 17 17 16 14 12 11 12 13 13 12 11 10 9 9 8 8 9 11 11 11 10 9 9 9 9 10 11 13 13 13 13 13 14 15 15 15 16 17 18 18 17 17 17 18 19 20 20 19 18 19 19 17 16 17 19 21 22 23 24 25
31 31 32 34 33 31 28 28 29 28 26 26 26 24 23 22 21 20 20 20 19 18 19 18 17 16 16 14 13 12 12 13 13 13 13 12 11 11 10 9 8 9 11 11 10 8 8 8 8 8 9 10 11 11 11 11 12 12 12 13 13 13 14 15 16 16 16 16 17 18 18 19 19 18 17 18 19 17 16 16 17 20 22 22 23
34 34 34 34 34 31 29 28 28 27 25 25 25 24 23 23 23 22 22 21 20 19 19 17 15 15 15 12 12 14 14 13 13 13 13 12 11 11 10 9 8 9 10 10 9 7 6 6 7 7 7 8 9 9 9 10 10 10 10 10 11 12 11 12 13 15 16 15 16 18 18 17 18 18 17 16 17 19 19 18 16 18 20 21 20
37 36 35 35 34 31 29 27 26 25 24 25 27 25 21 21 24 25 24 23 21 20 18 15 13 13 13 13 13 14 14 14 13 13 12 12 11 11 10 9 8 9 10 9 7 5 5 5 5 5 6 6 7 8 8 8 8 9 9 9 9 10 10 10 10 12 14 14 14 17 18 17 17 17 17 17 16 16 18 19 18 17 19 20 19
36 34 34 35 33 30 28 26 24 23 23 25 26 25 21 20 22 24 24 23 22 19 17 15 13 13 14 14 14 14 14 14 13 13 12 12 11 11 11 9 8 8 9 8 6 4 4 4 4 4 5 5 6 7 7 7 7 7 8 8 8 8 9 9 9 9 11 12 13 14 16 16 16 16 17 18 16 15 15 17 18 18 18 18 18
34 33 33 33 29 27 26 25 22 21 21 22 23 23 21 20 20 22 22 21 20 18 17 16 15 14 14 15 15 14 13 13 13 13 12 12 11 12 11 9 8 7 5 4 3 3 3 3 3 3 3 4 5 5 5 6 6 6 6 7 8 7 8 8 9 8 9 10 11 11 13 14 14 14 14 16 16 16 15 15 16 17 16 15 15
32 33 32 29 26 24 23 22 21 19 19 19 19 20 20 20 20 20 20 19 18 18 18 17 17 16 15 15 14 14 13 13 13 13 12 12 11 11 10 9 8 5 2 2 2 2 3 3 2 1 2 2 2 3 3 4 5 5 5 6 6 6 6 7 8 8 8 8 8 8 9 11 12 12 13 13 14 15 16 15 15 15 15 14 12
32 33 30 26 24 23 22 21 21 20 19 19 19 19 19 20 20 20 20 19 19 18 18 18 18 17 17 16 15 14 13 12 12 12 12 12 11 10 9 8 6 3 3 3 3 1 1 2 2 1 0 0 1 1 2 2 3 3 3 4 5 5 5 6 7 7 7 7 7 7 6 7 8 10 11 11 12 13 14 14 15 15 15 14 12
30 32 29 25 23 23 22 21 22 22 21 21 19 18 19 20 20 19 18 18 19 19 19 18 17 17 17 16 15 14 13 13 12 12 12 12 11 8 5 4 4 4 5 5 4 3 3 3 3 2 2 1 0 1 3 3 3 3 3 3 4 5 5 5 6 6 6 6 7 7 7 6 6 8 9 8 9 11 11 11 12 14 15 14 13
29 30 28 25 23 23 22 22 23 23 23 21 19 18 19 21 20 18 18 18 18 18 18 18 18 17 16 16 15 14 13 12 11 11 11 12 10 7 4 2 5 6 6 5 4 4 4 4 3 3 3 3 2 1 3 4 4 4 3 3 3 4 4 4 4 4 5 5 5 6 7 6 5 7 8 7 7 10 11 8 7 9 13 14 12
28 29 27 25 24 23 23 24 25 24 23 20 19 19 21 21 20 19 19 18 17 16 17 18 17 16 15 15 13 12 12 11 10 8 9 9 7 5 5 6 7 8 7 6 5 5 5 4 5 5 5 5 4 4 5 6 5 5 4 4 4 4 5 4 4 4 4 5 4 5 6 6 6 6 7 7 5 7 9 9 5 4 7 12 11
28 30 28 26 25 24 24 25 25 24 22 20 20 21 22 21 20 19 19 19 17 14 14 14 13 13 13 12 10 11 12 10 6 3 4 6 6 6 8 8 8 9 8 8 7 7 6 5 7 8 8 7 6 6 7 7 6 5 5 6 6 5 5 6 5 5 5 5 5 4 5 6 6 6 6 7 7 5 6 9 8 4 3 6 9
29 31 30 27 25 25 25 25 24 23 21 20 20 22 22 21 20 20 20 19 18 15 13 12 12 14 15 12 10 10 12 11 8 6 7 10 10 9 9 9 10 10 9 8 7 8 9 9 10 11 11 10 9 9 8 7 6 5 5 8 9 8 7 7 7 6 6 5 6 5 5 5 6 6 6 7 7 6 5 7 10 8 4 4 7
30 32 30 27 25 25 25 24 23 22 21 20 20 22 22 21 19 19 19 19 19 17 15 13 14 15 15 14 12 11 11 13 15 14 12 11 12 10 9 10 11 11 11 10 10 11 12 13 12 13 13 11 10 9 9 8 9 8 7 8 10 10 9 9 9 8 8 7 6 7 6 5 5 6 6 7 7 6 6 8 10 10 7 7 8
29 31 30 27 25 24 23 23 22 22 21 21 21 21 22 21 19 18 19 19 19 19 17 14 15 15 15 15 15 14 13 15 17 17 14 12 12 11 11 11 12 11 11 12 12 12 13 14 13 13 12 12 12 12 11 10 11 11 11 11 11 11 11 11 11 10 9 8 8 8 8 7 6 6 6 7 7 7 7 7 9 10 9 9 9
29 30 29 26 24 22 22 22 22 21 21 21 21 21 22 20 18 18 19 18 19 19 18 15 15 15 14 14 14 14 14 14 17 17 16 14 13 13 13 13 13 13 12 13 14 14 14 15 15 14 13 12 13 14 13 13 13 13 12 12 13 12 13 14 13 12 10 10 10 11 10 9 8 8 8 7 7 8 8 8 8 9 9 9 10
25 28 28 25 23 22 21 22 22 21 20 21 21 21 22 20 17 17 19 18 18 19 19 17 16 16 14 13 13 13 13 13 14 15 15 13 12 13 14 14 14 14 14 15 17 17 16 17 17 17 16 15 15 14 14 15 15 14 14 14 14 14 14 15 16 15 13 12 12 12 12 11 10 10 11 10 9 9 9 9 9 10 10 9 10
23 25 25 22 21 22 21 20 20 21 21 20 20 20 21 21 18 17 18 18 17 18 19 18 17 16 14 13 12 11 10 10 9 10 11 11 12 13 15 15 15 15 15 16 18 19 19 19 19 19 18 17 17 16 16 16 16 16 15 15 16 16 16 17 18 18 16 15 14 14 14 14 13 13 14 13 12 11 11 12 12 12 12 11 11
20 23 22 20 19 20 20 19 19 20 20 20 19 18 19 21 19 17 18 19 18 18 18 18 17 17 16 14 13 12 11 11 10 11 12 13 14 15 16 17 17 17 17 18 18 19 20 20 21 21 20 19 18 17 17 17 17 18 17 17 17 17 17 18 20 21 20 19 18 17 17 16 16 16 17 17 16 16 15 15 15 15 14 14 14
17 20 22 21 18 18 19 19 19 19 19 19 19 18 18 19 20 18 17 18 19 18 18 17 17 17 16 16 15 15 14 14 15 15 15 15 16 16 17 17 18 19 19 20 20 21 22 22 23 23 23 22 20 18 17 17 17 18 19 19 19 19 19 20 21 23 24 23 23 22 21 21 20 20 20 20 20 20 19 19 18 18 18 18 17
15 16 19 20 17 17 17 18 18 18 17 18 18 18 18 18 19 19 18 18 18 18 18 18 18 17 17 16 16 15 15 16 16 16 16 16 16 16 17 17 18 19 20 21 21 22 22 23 23 23 23 23 22 20 18 17 15 15 16 17 18 19 20 21 22 24 25 26 26 25 25 25 25 24 24 24 24 24 23 23 22 22 21 22 21
15 14 16 18 17 16 17 17 16 16 16 16 16 17 17 17 18 18 18 18 18 18 18 18 18 18 18 18 18 17 17 17 17 16 16 16 16 17 17 17 18 19 20 21 22 22 23 23 23 23 23 23 23 22 20 18 16 14 14 14 14 16 17 19 20 22 23 25 26 27 27 28 28 28 28 27 27 27 27 26 25 25 25 24 24
Wind_Direction
189 191 180 168 168 171 168 165 169 170 165 165 166 161 154 153 150 137 122 111 109 115 103 73 75 85 82 71 54 37 37 48 53 50 42 34 31 36 37 27 18 15 11 13 23 30 34 35 35 36 35 34 34 31 29 29 28 27 24 22 19 12 9 10 11 11 14 17 19 19 19 20 19 15 9 1 2 2 352 343 337 326 311 297 279
187 183 169 169 174 175 170 165 165 164 159 156 154 153 154 154 147 133 120 107 103 108 100 88 99 104 78 76 66 48 41 42 45 53 53 41 34 36 36 26 21 17 7 8 21 32 37 38 37 38 38 36 36 33 30 29 28 26 27 27 25 18 11 7 6 5 6 8 11 13 16 21 22 22 18 11 6 3 356 347 344 336 323 320 315
178 174 170 174 173 166 161 159 158 156 156 156 152 149 150 150 145 131 118 105 96 105 110 95 92 84 76 88 83 66 56 51 44 44 53 56 49 40 35 31 28 19 4 4 16 27 33 36 35 36 38 37 35 32 28 27 26 24 22 27 33 25 16 14 10 4 4 8 8 6 10 16 19 19 20 20 16 12 6 359 353 345 330 325 325
174 174 175 174 163 156 154 153 156 156 153 151 145 142 142 140 132 121 117 113 109 120 123 102 100 110 96 95 98 95 92 84 64 43 38 52 60 48 36 34 33 20 8 8 15 20 24 28 28 30 35 36 35 32 27 24 23 23 19 20 33 29 18 23 20 8 6 13 12 9 11 15 17 16 13 16 20 22 22 17 9 3 355 347 337
172 174 174 165 153 152 156 158 160 157 149 144 139 138 135 127 119 117 118 120 124 141 148 128 127 144 98 78 88 91 97 106 82 57 46 47 62 60 42 30 32 29 21 17 15 18 22 25 26 28 33 36 36 33 31 27 25 25 22 18 27 29 21 26 29 17 13 17 16 15 15 16 18 17 13 13 15 17 24 28 22 15 10 9 4
166 168 161 151 148 155 160 158 155 152 148 146 142 136 126 116 114 108 104 114 130 146 149 133 124 121 93 73 72 80 96 107 77 62 61 52 60 74 62 35 26 34 36 31 22 18 23 28 27 29 35 38 37 34 30 27 26 26 25 23 25 28 26 26 28 23 19 20 19 17 15 14 15 14 13 15 17 15 14 22 28 27 24 19 12
157 158 151 148 154 162 162 156 153 151 148 143 136 125 114 111 110 106 107 123 134 128 122 115 105 97 84 73 73 80 94 99 81 70 69 58 57 75 77 56 37 38 41 42 37 25 24 31 30 29 36 39 37 35 30 27 26 26 26 26 27 29 29 27 26 25 23 21 20 17 15 13 12 10 10 12 18 19 16 12 14 24 31 22 6
153 152 149 153 160 161 157 154 152 150 145 139 130 121 119 122 123 121 127 139 134 122 115 104 93 88 81 78 82 84 88 92 86 76 72 70 68 70 73 68 55 48 42 40 43 37 27 29 31 31 38 40 37 37 33 29 26 24 24 27 28 29 31 29 27 27 25 23 21 19 16 15 13 10 10 12 13 15 14 9 3 10 23 16 359
150 149 151 158 159 155 153 152 148 142 138 132 127 126 126 127 127 123 122 124 125 123 113 99 91 89 87 86 89 91 90 87 83 79 78 78 76 72 70 69 62 56 50 45 47 47 37 30 29 31 39 42 41 40 37 32 27 23 22 26 29 30 31 32 30 29 27 25 23 21 19 18 16 12 11 13 12 9 9 6 2 8 17 10 356
147 150 154 156 155 154 153 148 142 136 131 127 126 126 123 122 125 124 123 129 136 126 110 102 98 95 95 96 97 95 88 84 83 81 79 79 77 72 67 67 64 59 59 57 53 52 49 41 34 34 38 39 40 43 42 39 32 25 21 23 28 31 33 35 35 31 29 27 24 23 21 19 18 15 12 12 12 10 8 6 5 9 12 6 358
149 155 154 152 153 155 149 143 138 132 129 130 129 127 126 128 129 126 125 132 132 121 110 106 104 101 101 101 98 94 87 84 84 80 78 78 74 69 62 61 62 59 60 63 61 58 55 49 45 46 45 40 40 44 46 45 40 32 24 23 28 33 35 36 37 35 33 30 26 24 24 21 19 17 14 12 14 14 12 10 10 12 12 7 2
160 159 153 150 152 150 144 141 137 131 133 135 133 132 133 133 128 124 128 131 127 121 115 111 109 105 104 102 100 96 89 86 86 83 85 81 73 69 66 62 63 62 62 63 63 63 61 56 52 52 52 52 53 50 48 48 45 37 31 26 28 35 38 36 36 37 35 32 28 26 24 22 20 18 16 14 14 14 14 14 15 16 15 11 6
168 156 150 148 147 143 140 138 133 134 139 140 136 135 133 128 125 129 135 133 128 124 120 116 113 107 105 104 102 98 94 92 92 90 88 84 76 71 68 67 67 68 67 65 63 63 62 61 57 54 55 61 67 63 56 52 46 38 36 34 29 33 39 36 34 36 35 33 30 27 24 22 20 19 16 15 16 16 14 14 14 16 15 12 10
153 146 144 144 142 139 138 138 139 142 144 140 137 136 131 129 133 138 137 133 131 128 125 122 117 111 109 107 106 102 98 97 97 94 89 84 79 75 73 73 72 70 69 67 64 62 61 61 60 56 54 56 62 68 65 61 56 44 39 40 33 31 36 36 33 33 34 34 31 27 24 21 19 18 14 14 17 17 13 12 13 15 13 11 14
140 139 142 143 142 142 144 147 147 147 144 141 139 136 133 134 136 136 134 135 134 131 129 125 119 115 111 110 109 107 103 103 103 98 90 83 79 78 79 78 75 73 71 68 66 63 61 62 61 58 53 51 53 58 63 69 68 57 46 42 37 35 35 34 33 31 32 35 32 28 26 22 19 16 12 13 19 19 18 20 19 18 18 18 23
139 141 145 147 147 149 152 152 149 147 145 143 141 137 137 139 137 136 138 139 138 137 134 129 122 117 115 114 113 110 108 111 108 101 95 88 80 75 76 76 76 75 72 68 66 66 64 62 62 60 56 51 49 52 63 72 71 65 60 52 43 41 40 36 33 31 31 36 35 32 29 23 20 16 12 15 21 21 24 31 30 27 25 23 24
143 146 149 150 150 153 156 153 149 148 146 143 142 141 143 145 144 143 144 145 145 144 139 130 122 119 118 118 116 112 111 114 113 107 102 97 89 76 66 64 63 65 70 70 66 65 64 62 62 61 57 53 53 55 64 71 69 66 65 58 50 47 45 41 34 29 30 36 38 36 34 29 24 17 12 15 20 20 25 33 34 31 29 24 22
145 148 151 152 154 157 156 152 150 149 147 148 148 147 146 147 148 149 150 149 148 144 136 127 120 118 120 120 118 115 114 115 117 114 109 104 98 90 77 67 58 53 58 64 65 65 63 60 59 60 57 53 55 59 64 69 68 64 60 57 52 48 46 43 35 28 30 36 38 38 37 35 29 18 15 17 18 20 27 34 36 35 34 29 24
150 152 152 153 158 158 153 152 152 150 152 153 150 147 147 150 151 152 150 147 144 140 135 127 121 119 120 119 118 117 116 118 121 118 115 111 105 100 97 93 82 67 58 58 62 64 62 58 56 57 58 56 56 59 63 67 66 62 57 54 50 46 46 43 35 31 33 34 36 36 35 35 33 24 20 20 18 18 27 36 40 39 37 35 30
155 157 155 157 161 158 152 153 154 154 156 155 150 149 151 152 150 147 144 143 144 142 136 128 123 120 117 114 113 114 116 120 124 122 121 122 121 120 115 103 91 86 78 67 63 64 62 59 57 57 60 60 59 59 61 65 66 63 59 53 47 44 48 45 38 35 33 31 36 38 33 33 36 30 25 23 19 18 24 34 41 40 37 37 37
156 157 157 160 160 155 153 158 160 159 156 154 153 152 150 146 142 143 148 152 151 144 134 127 124 121 118 116 114 113 114 117 120 120 121 124 131 134 126 115 105 99 89 78 70 67 63 59 59 62 63 63 62 60 58 59 62 63 61 57 51 48 51 50 44 39 31 30 37 39 33 31 36 36 31 25 20 18 23 32 39 41 39 37 37
157 155 156 158 156 155 159 162 161 157 155 155 154 148 143 142 147 155 161 158 150 141 132 128 126 123 121 120 118 116 115 116 116 116 115 114 118 125 122 118 115 109 95 83 75 70 66 63 62 64 64 64 63 60 56 53 53 56 58 60 60 57 55 56 55 47 37 33 35 36 34 32 32 35 37 32 21 15 19 28 35 38 40 40 38
157 156 156 158 159 162 164 162 157 156 156 156 152 146 144 149 157 163 161 153 145 137 131 130 129 126 124 123 121 119 118 117 117 116 113 111 111 111 108 106 105 100 91 83 76 71 69 68 65 64 62 60 57 56 55 51 46 45 48 54 60 61 58 56 55 53 49 42 36 34 36 34 28 30 38 38 27 16 16 21 27 31 35 38 41
156 156 158 161 161 160 160 157 155 155 156 155 153 150 152 156 159 159 153 146 140 133 129 129 130 129 129 127 124 122 122 120 118 114 112 113 113 109 103 99 97 94 88 82 76 71 70 70 67 63 59 55 51 48 50 52 46 40 40 43 51 58 60 56 50 49 51 47 40 36 35 33 27 25 34 42 38 24 17 18 21 25 29 34 39
159 160 161 161 158 154 154 155 156 157 157 157 156 155 154 153 152 149 147 142 136 130 129 131 132 132 132 130 129 129 128 127 123 116 111 110 110 111 110 106 101 97 91 84 75 67 60 60 62 60 54 49 45 41 40 46 48 43 39 39 41 45 52 56 52 47 46 44 41 38 37 36 30 22 25 40 48 39 28 21 20 24 29 33 37
161 160 158 157 156 156 157 157 159 159 157 157 157 153 148 145 144 144 147 146 141 138 140 143 143 139 136 135 135 133 130 131 131 127 122 116 109 106 110 110 104 98 93 88 80 67 53 44 46 52 52 47 43 40 36 37 44 46 43 41 40 36 38 48 54 50 45 45 43 38 35 39 39 28 20 26 38 45 41 32 25 24 26 28 33
160 158 157 157 158 159 158 157 155 152 151 152 150 144 142 147 153 158 161 157 152 152 154 155 153 151 150 145 137 133 140 151 149 142 136 129 121 116 117 115 105 96 88 84 79 69 54 40 35 43 53 53 47 45 41 35 38 44 44 43 44 39 34 39 50 53 50 50 49 42 34 36 42 39 27 22 25 34 42 39 31 27 25 23 25
158 158 159 159 159 159 157 154 150 147 149 149 145 144 156 167 170 169 167 163 161 161 161 160 160 159 158 153 150 159 177 180 165 153 144 131 120 115 112 104 97 97 95 87 80 71 62 52 43 45 61 66 55 49 48 42 36 39 41 41 45 46 40 37 46 53 53 54 54 48 38 33 38 42 38 29 24 26 32 37 35 31 29 24 20
160 161 160 160 160 159 156 155 155 156 157 153 151 159 173 178 176 175 171 166 164 165 165 166 169 167 163 165 173 182 185 177 162 154 143 129 120 117 112 101 101 110 110 97 85 76 67 61 53 48 59 67 58 48 48 47 39 36 37 37 41 46 43 38 39 45 50 53 56 52 43 35 35 39 40 36 30 27 27 30 31 30 31 32 28
162 162 163 163 161 158 157 160 163 163 162 161 163 171 177 178 180 180 175 169 168 171 174 175 176 176 175 178 183 183 171 159 154 148 140 136 135 131 123 116 117 117 109 94 82 72 65 61 53 44 49 60 59 48 44 45 43 37 34 33 37 45 46 39 35 40 48 52 54 54 49 38 32 35 38 35 32 34 34 31 29 28 28 31 32
162 165 169 168 162 158 163 168 167 166 166 168 172 178 180 180 182 182 179 175 174 178 184 184 182 186 193 191 181 171 164 157 151 145 142 144 141 132 125 126 129 121 106 93 81 67 57 54 52 46 43 49 56 51 42 42 44 41 35 31 31 41 50 46 37 36 43 51 53 53 52 45 33 31 37 37 31 31 38 41 39 35 30 27 30
169 172 173 168 163 165 171 173 171 171 173 176 181 186 186 183 182 182 182 181 180 184 191 194 192 195 203 200 181 170 167 160 152 148 146 144 139 132 128 130 132 123 107 93 86 78 65 52 46 44 40 42 50 52 45 42 42 40 39 35 31 35 47 54 50 40 35 43 51 49 47 47 39 29 31 39 37 29 29 37 45 46 39 31 31
179 178 172 168 168 172 176 176 177 180 183 185 188 192 193 191 189 186 185 186 188 191 196 201 201 198 196 191 180 173 169 161 155 152 148 145 143 135 129 131 136 125 107 93 85 84 85 74 54 43 39 40 47 49 44 41 42 40 38 37 36 38 40 46 56 53 39 36 48 49 41 38 39 31 24 30 39 36 29 30 37 44 43 36 31
183 179 173 171 172 175 177 178 180 185 189 193 195 196 197 198 195 192 190 190 191 193 194 193 190 186 184 182 178 174 170 163 157 154 150 148 144 134 127 124 121 109 99 94 92 86 82 82 73 53 39 34 39 44 39 33 38 44 43 39 36 42 44 38 40 53 48 36 39 48 42 30 30 33 26 22 29 38 38 32 30 34 40 39 34
181 177 173 172 172 173 174 177 181 185 189 193 196 197 198 195 193 193 193 191 189 187 185 182 179 178 180 180 177 174 172 167 162 158 155 150 144 135 126 113 96 83 79 90 113 129 113 95 82 69 57 39 28 32 32 25 26 34 43 44 35 33 44 43 32 36 47 39 30 38 42 32 24 28 27 21 22 29 35 35 29 27 31 36 37
179 174 170 170 170 170 171 173 176 179 179 179 184 191 192 188 185 186 187 186 186 185 182 180 178 177 178 180 179 176 174 172 169 164 158 154 149 138 124 109 98 98 125 154 147 146 132 117 94 69 80 69 32 20 19 19 19 18 26 43 40 28 35 46 36 25 31 38 31 29 37 35 25 20 22 22 20 22 26 28 26 25 26 27 32
178 173 168 168 169 168 167 167 168 168 167 167 175 187 187 180 178 181 182 183 187 188 185 183 181 179 179 179 179 178 176 175 175 171 165 160 154 143 129 119 118 147 202 197 167 152 164 156 140 109 54 87 51 10 353 352 357 357 5 27 35 28 25 37 35 23 18 26 27 21 26 35 31 21 15 14 18 22 25 23 19 17 20 21 24
179 174 169 169 170 167 165 165 167 166 165 167 178 187 181 172 172 175 178 183 188 190 188 185 184 184 183 181 180 180 180 181 180 176 171 167 158 143 126 124 144 180 213 216 189 179 220 234 198 179 210 234 237 335 321 313 313 323 338 360 15 18 18 23 24 20 18 20 20 15 13 18 27 25 14 7 16 23 24 23 18 11 8 11 17
178 174 169 168 168 166 166 169 171 168 165 170 180 181 172 167 169 171 175 183 190 192 190 186 186 189 188 186 185 185 183 185 186 181 179 176 164 142 131 192 211 210 221 233 217 192 215 253 247 220 229 234 215 240 288 292 295 302 313 325 334 341 350 2 6 4 5 9 12 15 11 3 6 16 11 7 25 25 11 6 24 21 5 0 7
175 171 169 168 167 166 170 174 174 169 167 171 176 173 169 170 170 172 178 185 188 191 192 189 190 195 194 189 191 191 184 181 182 181 184 188 183 169 181 213 232 230 219 219 223 211 212 243 258 253 250 248 237 235 254 269 279 289 297 303 306 309 315 328 341 344 345 347 352 5 7 357 352 4 6 2 18 24 4 349 353 32 18 360 355
172 170 169 168 167 170 176 177 173 169 169 173 174 173 173 173 172 176 183 184 181 186 193 187 187 200 204 197 193 191 183 173 170 200 235 238 233 217 206 214 232 240 233 228 231 226 216 226 246 254 253 251 251 253 256 263 272 284 297 301 299 295 297 305 315 321 324 328 335 345 353 347 342 348 359 355 348 352 358 348 337 339 29 5 346
172 172 170 168 171 176 179 177 172 170 171 174 177 178 176 173 175 182 188 183 178 181 187 183 187 208 221 221 215 205 195 185 183 204 240 256 258 244 224 218 225 236 242 241 236 233 229 227 233 247 257 262 261 257 258 265 270 271 284 294 294 289 285 288 298 306 306 309 320 326 330 336 339 339 346 346 338 334 345 346 338 334 333 328 327
174 172 170 170 176 180 178 173 171 173 175 177 181 182 178 175 180 188 189 185 182 181 183 188 199 212 223 230 235 236 225 206 192 186 199 231 251 253 246 238 232 232 238 240 237 241 247 247 245 249 257 266 270 263 254 254 258 255 254 268 279 284 283 282 286 291 295 300 307 308 307 316 327 329 332 335 335 336 338 335 334 337 333 318 317
174 172 171 174 179 180 177 173 173 176 179 181 183 184 180 178 183 190 190 189 188 185 182 191 207 217 224 229 237 246 243 221 205 197 196 208 227 240 245 246 244 242 244 247 247 247 251 258 262 262 256 257 266 271 266 260 262 262 257 257 265 275 280 280 279 280 284 291 295 294 295 301 304 307 316 324 325 324 327 327 326 330 332 329 327
173 174 176 178 179 177 175 175 176 179 182 183 183 185 184 180 184 192 192 192 195 192 185 189 207 222 229 233 238 247 249 236 225 220 215 214 224 237 243 246 247 245 242 245 250 251 253 259 267 270 264 258 262 268 271 271 272 272 270 266 266 268 272 276 281 284 284 284 286 286 288 291 293 293 298 304 306 308 313 318 320 321 324 328 329
181 181 180 179 178 175 173 176 179 182 184 184 185 188 187 182 185 196 196 194 199 200 192 190 204 221 234 242 244 244 246 243 236 230 225 223 228 236 241 245 248 248 245 245 249 252 256 261 266 270 271 271 269 268 268 269 270 272 274 277 279 279 276 275 279 283 282 280 281 283 285 287 288 289 289 289 291 297 302 306 310 311 313 317 320
183 182 178 176 177 176 174 178 184 185 185 184 186 191 191 185 186 199 202 196 200 205 199 194 202 214 227 241 250 250 251 251 243 235 239 246 249 248 247 247 248 248 249 252 255 258 261 265 268 271 274 277 276 273 271 269 268 268 268 271 276 282 285 286 286 285 284 281 279 279 281 283 284 285 286 288 290 293 295 297 300 303 305 307 311
180 179 175 173 177 178 176 180 186 188 188 188 188 193 196 191 189 199 205 201 202 209 207 202 205 211 217 227 236 239 245 250 246 240 242 248 250 251 252 252 252 251 250 250 253 258 263 267 271 276 280 281 280 277 274 273 272 271 269 267 267 269 274 280 285 287 289 289 288 284 283 283 283 282 284 286 288 289 290 291 292 294 297 298 298
178 180 177 174 176 179 180 184 188 189 191 193 192 195 200 198 194 200 208 207 206 210 210 206 208 213 218 225 232 235 237 241 242 242 244 246 247 250 254 257 259 259 257 255 254 256 259 263 269 275 281 285 285 283 280 276 273 271 271 271 270 268 267 268 272 276 282 286 289 288 287 286 285 284 284 285 285 286 287 288 288 289 291 291 291
173 181 181 177 177 182 185 188 192 192 193 197 197 198 202 202 198 200 206 209 209 211 212 211 211 213 217 222 228 232 235 238 240 243 246 248 248 249 252 255 258 261 262 263 263 262 261 263 267 273 278 282 285 287 287 284 280 277 274 273 274 274 273 272 272 272 276 280 284 285 286 285 285 285 286 286 286 287 287 287 288 288 288 288 289
174 182 184 181 181 184 186 190 194 193 193 198 200 200 201 204 204 204 208 212 213 215 218 219 219 219 220 223 226 229 233 237 241 244 246 247 250 253 256 258 259 260 262 265 267 267 268 268 270 274 277 280 283 286 288 288 288 288 288 286 285 283 281 281 280 279 279 280 281 282 282 282 283 284 285 285 285 285 286 285 286 286 286 287 288